C2018 KORL-KVQQ

Flight info

Callsign C2018
Flight time N/A
Altitude VFR/125
Route VFR
Aircraft C30J/M-SDE2E3FGRY/LB1

Departure

Time N/A
Airport Orlando Executive Airport (KORL)

Arrival

Time 2026-05-05 02:07
Airport Cecil Airport (KVQQ)
Time Latitude Longitude Altitude Speed Heading
2026-05-05 02:02 30.25289 -81.83973 1469 ft 153 kts 110°
2026-05-05 02:02 30.24575 -81.83316 1313 ft 136 kts 166°
2026-05-05 02:02 30.23530 -81.83292 1028 ft 165 kts 175°
2026-05-05 02:03 30.22425 -81.83307 911 ft 158 kts 176°
2026-05-05 02:03 30.21296 -81.83317 809 ft 162 kts 176°
2026-05-05 02:03 30.20876 -81.83314 804 ft 163 kts 176°
2026-05-05 02:03 30.19969 -81.83307 833 ft 165 kts 176°
2026-05-05 02:04 30.18885 -81.83324 991 ft 150 kts 176°
2026-05-05 02:04 30.17854 -81.83380 972 ft 147 kts 178°
2026-05-05 02:04 30.16840 -81.83416 1021 ft 147 kts 178°
2026-05-05 02:04 30.15950 -81.84037 1060 ft 159 kts 236°
2026-05-05 02:05 30.15810 -81.85358 996 ft 177 kts 270°
2026-05-05 02:05 30.16004 -81.86682 982 ft 176 kts 295°
2026-05-05 02:05 30.16872 -81.87567 828 ft 160 kts 352°
2026-05-05 02:05 30.17937 -81.87517 504 ft 152 kts
2026-05-05 02:06 30.18939 -81.87428 292 ft 140 kts
2026-05-05 02:06 30.19887 -81.87391 177 ft 135 kts 359°
2026-05-05 02:06 30.20763 -81.87401 88 ft 114 kts 360°
2026-05-05 02:06 30.21474 -81.87392 85 ft 93 kts 358°
2026-05-05 02:07 30.21948 -81.87403 71 ft 33 kts
2026-05-05 02:07 30.22144 -81.87399 72 ft 25 kts
2026-05-05 02:07 30.22352 -81.87399 73 ft 31 kts
2026-05-05 02:07 30.22416 -81.87464 76 ft 13 kts 265°
2026-05-05 02:08 30.22415 -81.87606 83 ft 29 kts 272°
2026-05-05 02:08 30.22421 -81.87740 79 ft 7 kts 269°
2026-05-05 02:08 30.22362 -81.87781 81 ft 17 kts 179°
2026-05-05 02:08 30.22203 -81.87779 82 ft 26 kts 178°
2026-05-05 02:09 30.22036 -81.87778 84 ft 16 kts 186°
2026-05-05 02:09 30.21988 -81.87861 79 ft 9 kts 280°
2026-05-05 02:09 30.21983 -81.88017 79 ft 27 kts 269°
2026-05-05 02:09 30.21981 -81.88208 82 ft 19 kts 269°
2026-05-05 02:10 30.21973 -81.88332 80 ft 17 kts 275°
2026-05-05 02:10 30.21976 -81.88448 81 ft 11 kts 268°
2026-05-05 02:10 30.21979 -81.88547 81 ft 17 kts 269°
2026-05-05 02:10 30.21979 -81.88631 81 ft 16 kts 268°
2026-05-05 02:11 30.21990 -81.88758 82 ft 7 kts 298°
2026-05-05 02:11 30.22009 -81.88759 84 ft 8 kts 10°
2026-05-05 02:11 30.22044 -81.88756 84 ft 3 kts
2026-05-05 02:11 30.22049 -81.88755 83 ft 0 kts